| time (UTC) | temp F | wind direction | speed MPH | gust MPH | rain 1hr in | rain 24hr in | rain mn in | humidity % | barometer mb |
| 20260508171952 | 49 | 0 | 1.0 | 2.0 | 0.00 | 0.00 | 0.00 | 44 | 1002.2 |
| 20260508171449 | 49 | 302 | 0.0 | 2.0 | 0.00 | 0.00 | 0.00 | 43 | 1002.2 |
| 20260508170945 | 49 | 304 | 0.0 | 0.0 | 0.00 | 0.00 | 0.00 | 44 | 1002.2 |
| 20260508170443 | 51 | 43 | 0.0 | 0.0 | 0.00 | 0.00 | 0.00 | 43 | 1001.9 |
| 20260508165939 | 53 | 27 | 0.0 | 0.0 | 0.00 | 0.00 | 0.00 | 39 | 1001.9 |
| 20260508165437 | 53 | 13 | 0.0 | 2.0 | 0.00 | 0.00 | 0.00 | 41 | 1001.9 |
| 20260508164933 | 53 | 209 | 0.0 | 0.0 | 0.00 | 0.00 | 0.00 | 44 | 1001.9 |
| 20260508164430 | 50 | 66 | 0.0 | 0.0 | 0.00 | 0.00 | 0.00 | 46 | 1001.9 |
| 20260508163927 | 49 | 3 | 0.0 | 0.0 | 0.00 | 0.00 | 0.00 | 43 | 1001.9 |
| 20260508163425 | 49 | 256 | 0.0 | 0.0 | 0.00 | 0.00 | 0.00 | 44 | 1001.9 |
| 20260508162920 | 51 | 25 | 0.0 | 0.0 | 0.00 | 0.00 | 0.00 | 45 | 1002.2 |
| 20260508162418 | 51 | 82 | 0.0 | 0.0 | 0.00 | 0.00 | 0.00 | 46 | 1001.9 |
| 20260508161915 | 50 | 186 | 0.0 | 0.0 | 0.00 | 0.00 | 0.00 | 46 | 1001.9 |
| 20260508161412 | 51 | 40 | 0.0 | 0.0 | 0.00 | 0.00 | 0.00 | 46 | 1001.9 |
| 20260508160909 | 52 | 207 | 0.0 | 0.0 | 0.00 | 0.00 | 0.00 | 44 | 1001.9 |
| 20260508160408 | 52 | 231 | 0.0 | 0.0 | 0.00 | 0.00 | 0.00 | 47 | 1002.2 |
| 20260508155903 | 50 | 12 | 0.0 | 0.0 | 0.00 | 0.00 | 0.00 | 46 | 1002.2 |
| 20260508155401 | 50 | 25 | 0.0 | 0.0 | 0.00 | 0.00 | 0.00 | 46 | 1002.2 |
| 20260508154858 | 51 | 143 | 0.0 | 0.0 | 0.00 | 0.00 | 0.00 | 47 | 1002.2 |
| 20260508154355 | 50 | 185 | 0.0 | 0.0 | 0.00 | 0.00 | 0.00 | 47 | 1002.2 |
| 20260508153852 | 50 | 9 | 0.0 | 0.0 | 0.00 | 0.00 | 0.00 | 49 | 1002.6 |
| 20260508153349 | 50 | 20 | 0.0 | 0.0 | 0.00 | 0.00 | 0.00 | 54 | 1002.2 |
| 20260508152845 | 49 | 99 | 0.0 | 0.0 | 0.00 | 0.00 | 0.00 | 51 | 1002.6 |
| 20260508152342 | 49 | 74 | 0.0 | 0.0 | 0.00 | 0.00 | 0.00 | 52 | 1002.6 |
| 20260508151838 | 49 | 3 | 2.0 | 5.0 | 0.00 | 0.00 | 0.00 | 51 | 1002.6 |
| 20260508151335 | 48 | 230 | 0.0 | 0.0 | 0.00 | 0.00 | 0.00 | 52 | 1002.6 |
| 20260508150831 | 47 | 209 | 0.0 | 0.0 | 0.00 | 0.00 | 0.00 | 49 | 1002.6 |
| 20260508150328 | 48 | 201 | 0.0 | 5.0 | 0.00 | 0.00 | 0.00 | 52 | 1002.6 |
| 20260508145824 | 48 | 198 | 0.0 | 0.0 | 0.00 | 0.00 | 0.00 | 52 | 1002.6 |
| 20260508145321 | 48 | 100 | 0.0 | 0.0 | 0.00 | 0.00 | 0.00 | 52 | 1002.6 |
| 20260508144818 | 48 | 187 | 0.0 | 0.0 | 0.00 | 0.00 | 0.00 | 53 | 1002.6 |
| 20260508144316 | 48 | 232 | 0.0 | 0.0 | 0.00 | 0.00 | 0.00 | 56 | 1002.9 |
| 20260508143813 | 47 | 20 | 0.0 | 0.0 | 0.00 | 0.00 | 0.00 | 54 | 1002.9 |
| 20260508143310 | 47 | 297 | 0.0 | 0.0 | 0.00 | 0.00 | 0.00 | 54 | 1002.6 |
| 20260508142807 | 47 | 161 | 0.0 | 0.0 | 0.00 | 0.00 | 0.00 | 56 | 1002.9 |
| 20260508142306 | 46 | 138 | 0.0 | 0.0 | 0.00 | 0.00 | 0.00 | 53 | 1002.9 |
| 20260508141759 | 47 | 178 | 0.0 | 0.0 | 0.00 | 0.00 | 0.00 | 53 | 1002.9 |
| 20260508141257 | 47 | 217 | 0.0 | 0.0 | 0.00 | 0.00 | 0.00 | 53 | 1002.9 |
| 20260508140754 | 48 | 40 | 0.0 | 2.0 | 0.00 | 0.00 | 0.00 | 49 | 1002.9 |
| 20260508140251 | 49 | 341 | 1.0 | 5.0 | 0.00 | 0.00 | 0.00 | 50 | 1002.6 |
| 20260508135747 | 50 | 302 | 0.0 | 0.0 | 0.00 | 0.00 | 0.00 | 53 | 1002.6 |
| 20260508135243 | 49 | 333 | 0.0 | 8.0 | 0.00 | 0.00 | 0.00 | 52 | 1002.6 |
| 20260508134738 | 49 | 14 | 1.0 | 2.0 | 0.00 | 0.00 | 0.00 | 57 | 1002.6 |
| 20260508134236 | 48 | 324 | 3.0 | 5.0 | 0.00 | 0.00 | 0.00 | 53 | 1002.6 |
| 20260508133733 | 48 | 285 | 0.0 | 5.0 | 0.00 | 0.00 | 0.00 | 52 | 1002.6 |
| 20260508133231 | 50 | 62 | 3.0 | 5.0 | 0.00 | 0.00 | 0.00 | 50 | 1002.6 |
| 20260508132728 | 49 | 43 | 0.0 | 0.0 | 0.00 | 0.00 | 0.00 | 55 | 1002.6 |
| 20260508132225 | 48 | 48 | 3.0 | 10.0 | 0.00 | 0.00 | 0.00 | 55 | 1002.6 |
| 20260508131721 | 49 | 359 | 0.0 | 2.0 | 0.00 | 0.00 | 0.00 | 52 | 1002.6 |
| 20260508131218 | 49 | 276 | 0.0 | 2.0 | 0.00 | 0.00 | 0.00 | 59 | 1002.6 |
| 20260508130714 | 47 | 356 | 5.0 | 8.0 | 0.00 | 0.00 | 0.00 | 56 | 1002.6 |
| 20260508130212 | 47 | 11 | 1.0 | 5.0 | 0.00 | 0.00 | 0.00 | 58 | 1002.6 |
| 20260508125707 | 47 | 156 | 0.0 | 5.0 | 0.00 | 0.00 | 0.00 | 57 | 1002.6 |
| 20260508125203 | 47 | 335 | 1.0 | 2.0 | 0.00 | 0.00 | 0.00 | 61 | 1002.2 |
| 20260508124702 | 46 | 46 | 0.0 | 5.0 | 0.00 | 0.00 | 0.00 | 60 | 1002.6 |
| 20260508124158 | 48 | 220 | 0.0 | 5.0 | 0.00 | 0.00 | 0.00 | 62 | 1002.2 |
| 20260508123657 | 47 | 357 | 1.0 | 2.0 | 0.00 | 0.00 | 0.00 | 63 | 1002.6 |
| 20260508123155 | 46 | 8 | 2.0 | 8.0 | 0.00 | 0.00 | 0.00 | 64 | 1002.2 |
| 20260508122650 | 47 | 344 | 2.0 | 5.0 | 0.00 | 0.00 | 0.00 | 62 | 1002.2 |
| 20260508122147 | 46 | 250 | 1.0 | 2.0 | 0.00 | 0.00 | 0.00 | 67 | 1002.2 |
| 20260508121645 | 45 | 337 | 3.0 | 5.0 | 0.00 | 0.00 | 0.00 | 66 | 1002.2 |
| 20260508121143 | 44 | 160 | 0.0 | 0.0 | 0.00 | 0.00 | 0.00 | 70 | 1002.2 |
| 20260508120640 | 43 | 311 | 0.0 | 5.0 | 0.00 | 0.00 | 0.00 | 70 | 1002.2 |
| 20260508120139 | 42 | 129 | 0.0 | 0.0 | 0.00 | 0.00 | 0.00 | 71 | 1002.2 |
| 20260508115636 | 42 | 191 | 0.0 | 0.0 | 0.00 | 0.00 | 0.00 | 71 | 1002.2 |
| 20260508115132 | 42 | 199 | 0.0 | 0.0 | 0.00 | 0.00 | 0.00 | 73 | 1002.2 |
| 20260508114629 | 42 | 263 | 0.0 | 0.0 | 0.00 | 0.00 | 0.00 | 74 | 1002.2 |
| 20260508114125 | 41 | 66 | 0.0 | 0.0 | 0.00 | 0.00 | 0.00 | 76 | 1001.9 |
| 20260508113623 | 41 | 245 | 0.0 | 0.0 | 0.00 | 0.00 | 0.00 | 78 | 1001.9 |
| 20260508113121 | 41 | 235 | 1.0 | 2.0 | 0.00 | 0.00 | 0.00 | 81 | 1001.9 |
| 20260508112617 | 41 | 106 | 0.0 | 0.0 | 0.00 | 0.00 | 0.00 | 82 | 1001.9 |
| 20260508112114 | 41 | 281 | 0.0 | 0.0 | 0.00 | 0.00 | 0.00 | 85 | 1001.9 |
| 20260508111611 | 41 | 191 | 0.0 | 0.0 | 0.00 | 0.00 | 0.00 | 85 | 1001.9 |
| 20260508111108 | 41 | 220 | 0.0 | 0.0 | 0.00 | 0.00 | 0.00 | 86 | 1001.9 |
| 20260508110606 | 41 | 201 | 0.0 | 0.0 | 0.00 | 0.00 | 0.00 | 86 | 1001.6 |
| 20260508105557 | 40 | 200 | 0.0 | 0.0 | 0.00 | 0.00 | 0.00 | 86 | 1001.6 |
| 20260508105054 | 40 | 128 | 0.0 | 0.0 | 0.00 | 0.00 | 0.00 | 86 | 1001.6 |
| 20260508104552 | 40 | 288 | 0.0 | 2.0 | 0.00 | 0.00 | 0.00 | 86 | 1001.9 |
| 20260508104048 | 40 | 278 | 0.0 | 0.0 | 0.00 | 0.00 | 0.00 | 86 | 1001.6 |
| 20260508103545 | 40 | 131 | 0.0 | 0.0 | 0.00 | 0.00 | 0.00 | 86 | 1001.6 |
| 20260508103043 | 39 | 225 | 0.0 | 0.0 | 0.00 | 0.00 | 0.00 | 86 | 1001.2 |
| 20260508102540 | 39 | 220 | 0.0 | 0.0 | 0.00 | 0.00 | 0.00 | 86 | 1001.2 |
| 20260508102038 | 39 | 196 | 0.0 | 0.0 | 0.00 | 0.00 | 0.00 | 86 | 1001.6 |
| 20260508101535 | 39 | 216 | 0.0 | 0.0 | 0.00 | 0.00 | 0.00 | 85 | 1001.2 |
| 20260508101032 | 39 | 203 | 0.0 | 0.0 | 0.00 | 0.00 | 0.00 | 85 | 1001.2 |
| 20260508100530 | 39 | 199 | 0.0 | 0.0 | 0.00 | 0.00 | 0.00 | 85 | 1001.2 |
| 20260508100027 | 39 | 207 | 0.0 | 0.0 | 0.00 | 0.00 | 0.00 | 84 | 1000.9 |
| 20260508095524 | 39 | 214 | 0.0 | 0.0 | 0.00 | 0.00 | 0.00 | 84 | 1001.2 |
| 20260508095021 | 39 | 203 | 0.0 | 0.0 | 0.00 | 0.00 | 0.00 | 84 | 1001.2 |
| 20260508094518 | 39 | 211 | 0.0 | 0.0 | 0.00 | 0.00 | 0.00 | 83 | 1000.9 |
| 20260508094015 | 39 | 195 | 0.0 | 0.0 | 0.00 | 0.00 | 0.00 | 83 | 1000.9 |
| 20260508093511 | 39 | 240 | 0.0 | 0.0 | 0.00 | 0.00 | 0.00 | 82 | 1000.9 |
| 20260508093010 | 39 | 329 | 0.0 | 0.0 | 0.00 | 0.00 | 0.00 | 82 | 1000.9 |
| 20260508092507 | 39 | 353 | 0.0 | 0.0 | 0.00 | 0.00 | 0.00 | 82 | 1000.9 |
| 20260508092006 | 39 | 1 | 0.0 | 0.0 | 0.00 | 0.00 | 0.00 | 81 | 1000.9 |
| 20260508091502 | 39 | 186 | 0.0 | 0.0 | 0.00 | 0.00 | 0.00 | 81 | 1000.4 |
| 20260508090959 | 39 | 220 | 0.0 | 0.0 | 0.00 | 0.00 | 0.00 | 81 | 1000.4 |
| 20260508090457 | 39 | 230 | 0.0 | 0.0 | 0.00 | 0.00 | 0.00 | 80 | 1000.4 |
| 20260508085953 | 39 | 9 | 0.0 | 0.0 | 0.00 | 0.00 | 0.00 | 80 | 1000.4 |
| 20260508085450 | 39 | 16 | 0.0 | 0.0 | 0.00 | 0.00 | 0.00 | 80 | 1000.4 |
| 20260508084947 | 39 | 161 | 0.0 | 0.0 | 0.00 | 0.00 | 0.00 | 80 | 1000.4 |
| 20260508084443 | 39 | 105 | 0.0 | 0.0 | 0.00 | 0.00 | 0.00 | 80 | 1000.4 |
| 20260508083942 | 39 | 235 | 0.0 | 0.0 | 0.00 | 0.00 | 0.00 | 80 | 1000.4 |
| 20260508083438 | 39 | 201 | 0.0 | 0.0 | 0.00 | 0.00 | 0.00 | 80 | 1000.4 |
| 20260508082938 | 39 | 220 | 0.0 | 0.0 | 0.00 | 0.00 | 0.00 | 80 | 1000.4 |
| 20260508082436 | 39 | 193 | 0.0 | 0.0 | 0.00 | 0.00 | 0.00 | 80 | 1000.4 |
| 20260508081934 | 39 | 203 | 0.0 | 0.0 | 0.00 | 0.00 | 0.00 | 79 | 1000.4 |
| 20260508081430 | 39 | 182 | 0.0 | 0.0 | 0.00 | 0.00 | 0.00 | 79 | 1000.1 |
| 20260508080926 | 39 | 199 | 0.0 | 0.0 | 0.00 | 0.00 | 0.00 | 79 | 1000.4 |
| 20260508080425 | 39 | 203 | 0.0 | 0.0 | 0.00 | 0.00 | 0.00 | 79 | 1000.1 |
| 20260508075921 | 39 | 196 | 0.0 | 0.0 | 0.00 | 0.00 | 0.00 | 78 | 1000.1 |
| 20260508075418 | 39 | 208 | 0.0 | 0.0 | 0.00 | 0.00 | 0.00 | 78 | 1000.1 |
| 20260508074916 | 39 | 209 | 0.0 | 0.0 | 0.00 | 0.00 | 0.00 | 78 | 1000.1 |
| 20260508074413 | 39 | 199 | 0.0 | 0.0 | 0.00 | 0.00 | 0.00 | 78 | 1000.1 |
| 20260508073910 | 39 | 206 | 0.0 | 0.0 | 0.00 | 0.00 | 0.00 | 77 | 1000.1 |
| 20260508073408 | 39 | 193 | 0.0 | 0.0 | 0.00 | 0.00 | 0.00 | 77 | 1000.1 |
| 20260508072904 | 39 | 194 | 0.0 | 0.0 | 0.00 | 0.00 | 0.00 | 77 | 1000.1 |
| 20260508072401 | 39 | 183 | 0.0 | 0.0 | 0.00 | 0.00 | 0.00 | 77 | 1000.1 |
| 20260508071857 | 39 | 168 | 0.0 | 0.0 | 0.00 | 0.00 | 0.00 | 76 | 1000.1 |
| 20260508071356 | 39 | 184 | 0.0 | 0.0 | 0.00 | 0.00 | 0.00 | 76 | 1000.1 |
| 20260508070853 | 39 | 191 | 0.0 | 0.0 | 0.00 | 0.00 | 0.00 | 76 | 1000.1 |
| 20260508070351 | 39 | 223 | 0.0 | 0.0 | 0.00 | 0.00 | 0.00 | 76 | 1000.1 |
| 20260508065849 | 39 | 192 | 0.0 | 0.0 | 0.00 | 0.00 | 0.00 | 76 | 1000.4 |
| 20260508065347 | 39 | 220 | 0.0 | 0.0 | 0.00 | 0.00 | 0.00 | 76 | 1000.1 |
| 20260508064845 | 39 | 189 | 0.0 | 5.0 | 0.00 | 0.00 | 0.00 | 76 | 1000.1 |
| 20260508064342 | 39 | 194 | 0.0 | 0.0 | 0.00 | 0.00 | 0.00 | 76 | 1000.1 |
| 20260508063840 | 39 | 257 | 0.0 | 0.0 | 0.00 | 0.00 | 0.00 | 75 | 1000.4 |
| 20260508063337 | 39 | 220 | 0.0 | 0.0 | 0.00 | 0.00 | 0.00 | 75 | 1000.4 |
| 20260508062834 | 39 | 186 | 0.0 | 0.0 | 0.00 | 0.00 | 0.00 | 75 | 1000.1 |
| 20260508062332 | 39 | 177 | 0.0 | 0.0 | 0.00 | 0.00 | 0.00 | 75 | 1000.4 |
| 20260508061828 | 39 | 215 | 0.0 | 0.0 | 0.00 | 0.00 | 0.00 | 75 | 1000.4 |
| 20260508061326 | 39 | 138 | 0.0 | 0.0 | 0.00 | 0.00 | 0.00 | 75 | 1000.1 |
| 20260508060822 | 39 | 221 | 0.0 | 2.0 | 0.00 | 0.00 | 0.00 | 74 | 1000.4 |
| 20260508060320 | 39 | 218 | 0.0 | 0.0 | 0.00 | 0.00 | 0.00 | 74 | 1000.4 |
| 20260508055814 | 39 | 262 | 0.0 | 0.0 | 0.00 | 0.00 | 0.00 | 74 | 1000.4 |
| 20260508055313 | 39 | 204 | 0.0 | 0.0 | 0.00 | 0.00 | 0.00 | 74 | 1000.4 |
| 20260508054809 | 39 | 259 | 0.0 | 0.0 | 0.00 | 0.00 | 0.00 | 74 | 1000.4 |
| 20260508054306 | 39 | 240 | 0.0 | 0.0 | 0.00 | 0.00 | 0.00 | 74 | 1000.4 |
| 20260508053803 | 39 | 228 | 0.0 | 0.0 | 0.00 | 0.00 | 0.00 | 74 | 1000.4 |
| 20260508053300 | 39 | 238 | 0.0 | 0.0 | 0.00 | 0.00 | 0.00 | 74 | 1000.4 |
| 20260508052758 | 39 | 203 | 0.0 | 0.0 | 0.00 | 0.00 | 0.00 | 74 | 1000.4 |
| 20260508052255 | 39 | 212 | 0.0 | 0.0 | 0.00 | 0.00 | 0.00 | 75 | 1000.4 |
| 20260508051751 | 38 | 198 | 0.0 | 0.0 | 0.00 | 0.00 | 0.00 | 75 | 1000.4 |
| 20260508051246 | 38 | 226 | 0.0 | 5.0 | 0.00 | 0.00 | 0.00 | 76 | 1000.4 |
| 20260508050743 | 38 | 210 | 0.0 | 2.0 | 0.00 | 0.00 | 0.00 | 76 | 1000.4 |
| 20260508050240 | 37 | 173 | 0.0 | 0.0 | 0.00 | 0.00 | 0.00 | 77 | 1000.9 |
| 20260508045735 | 37 | 254 | 0.0 | 5.0 | 0.00 | 0.00 | 0.00 | 77 | 1000.4 |
| 20260508045234 | 37 | 200 | 0.0 | 0.0 | 0.00 | 0.00 | 0.00 | 77 | 1000.9 |
| 20260508044731 | 37 | 236 | 0.0 | 0.0 | 0.00 | 0.00 | 0.00 | 78 | 1000.9 |
| 20260508044228 | 37 | 207 | 0.0 | 0.0 | 0.00 | 0.00 | 0.00 | 78 | 1000.9 |
| 20260508043724 | 37 | 181 | 0.0 | 0.0 | 0.00 | 0.00 | 0.00 | 78 | 1000.9 |
| 20260508043221 | 37 | 206 | 0.0 | 0.0 | 0.00 | 0.00 | 0.00 | 78 | 1000.9 |
| 20260508042718 | 37 | 228 | 0.0 | 0.0 | 0.00 | 0.00 | 0.00 | 78 | 1000.9 |
| 20260508042215 | 37 | 192 | 0.0 | 0.0 | 0.00 | 0.00 | 0.00 | 78 | 1000.9 |
| 20260508041711 | 36 | 196 | 0.0 | 0.0 | 0.00 | 0.00 | 0.00 | 77 | 1000.9 |
| 20260508041209 | 36 | 197 | 0.0 | 0.0 | 0.00 | 0.00 | 0.00 | 77 | 1000.9 |
| 20260508040705 | 36 | 199 | 0.0 | 0.0 | 0.00 | 0.00 | 0.00 | 77 | 1000.9 |
| 20260508040202 | 37 | 190 | 0.0 | 0.0 | 0.00 | 0.00 | 0.00 | 77 | 1000.9 |
| 20260508035659 | 37 | 190 | 0.0 | 0.0 | 0.00 | 0.44 | 0.44 | 77 | 1000.9 |
| 20260508035157 | 37 | 202 | 0.0 | 0.0 | 0.00 | 0.44 | 0.44 | 77 | 1000.9 |
| 20260508034653 | 37 | 216 | 0.0 | 0.0 | 0.00 | 0.44 | 0.44 | 77 | 1000.9 |
| 20260508034150 | 37 | 196 | 0.0 | 0.0 | 0.00 | 0.44 | 0.44 | 77 | 1000.9 |
| 20260508033648 | 37 | 196 | 0.0 | 0.0 | 0.00 | 0.44 | 0.44 | 77 | 1000.9 |
| 20260508033146 | 37 | 208 | 0.0 | 0.0 | 0.00 | 0.44 | 0.44 | 76 | 1000.9 |
| 20260508032643 | 37 | 208 | 0.0 | 0.0 | 0.00 | 0.44 | 0.44 | 76 | 1000.9 |
| 20260508032140 | 38 | 195 | 0.0 | 0.0 | 0.00 | 0.44 | 0.44 | 76 | 1000.9 |
| 20260508031637 | 38 | 208 | 0.0 | 0.0 | 0.00 | 0.44 | 0.44 | 76 | 1000.9 |
| 20260508031133 | 39 | 186 | 0.0 | 0.0 | 0.00 | 0.44 | 0.44 | 76 | 1000.9 |
| 20260508030629 | 39 | 217 | 0.0 | 0.0 | 0.00 | 0.44 | 0.44 | 76 | 1000.9 |
| 20260508030127 | 39 | 218 | 0.0 | 0.0 | 0.00 | 0.44 | 0.44 | 76 | 1001.2 |
| 20260508025623 | 39 | 268 | 0.0 | 0.0 | 0.00 | 0.44 | 0.44 | 76 | 1001.2 |
| 20260508025121 | 39 | 190 | 0.0 | 0.0 | 0.00 | 0.44 | 0.44 | 76 | 1001.2 |
| 20260508024616 | 39 | 195 | 0.0 | 0.0 | 0.00 | 0.44 | 0.44 | 76 | 1001.2 |
| 20260508024114 | 39 | 183 | 0.0 | 0.0 | 0.00 | 0.44 | 0.44 | 76 | 1001.2 |
| 20260508023610 | 39 | 192 | 0.0 | 0.0 | 0.00 | 0.44 | 0.44 | 76 | 1001.6 |
| 20260508023108 | 40 | 195 | 0.0 | 0.0 | 0.00 | 0.44 | 0.44 | 76 | 1001.2 |
| 20260508022603 | 40 | 204 | 0.0 | 0.0 | 0.00 | 0.44 | 0.44 | 76 | 1001.6 |
| 20260508022101 | 40 | 200 | 0.0 | 0.0 | 0.00 | 0.44 | 0.44 | 76 | 1001.6 |
| 20260508021556 | 40 | 220 | 0.0 | 0.0 | 0.00 | 0.44 | 0.44 | 76 | 1001.6 |
| 20260508021052 | 40 | 205 | 0.0 | 0.0 | 0.00 | 0.44 | 0.44 | 76 | 1001.2 |
| 20260508020550 | 40 | 201 | 0.0 | 0.0 | 0.00 | 0.44 | 0.44 | 76 | 1001.6 |
| 20260508020048 | 40 | 211 | 0.0 | 0.0 | 0.00 | 0.44 | 0.44 | 76 | 1001.6 |
| 20260508015545 | 40 | 190 | 0.0 | 0.0 | 0.00 | 0.44 | 0.44 | 76 | 1001.6 |
| 20260508015042 | 40 | 192 | 0.0 | 0.0 | 0.00 | 0.44 | 0.44 | 76 | 1001.2 |
| 20260508014538 | 40 | 207 | 0.0 | 0.0 | 0.00 | 0.44 | 0.44 | 76 | 1001.2 |
| 20260508014034 | 40 | 200 | 0.0 | 0.0 | 0.00 | 0.44 | 0.44 | 76 | 1001.6 |
| 20260508013530 | 40 | 206 | 0.0 | 0.0 | 0.00 | 0.44 | 0.44 | 75 | 1001.6 |
| 20260508013028 | 41 | 204 | 0.0 | 0.0 | 0.00 | 0.44 | 0.44 | 75 | 1001.6 |
| 20260508012525 | 41 | 200 | 0.0 | 0.0 | 0.00 | 0.44 | 0.44 | 75 | 1001.6 |
| 20260508012022 | 41 | 213 | 0.0 | 0.0 | 0.00 | 0.44 | 0.44 | 75 | 1001.6 |
| 20260508011520 | 41 | 268 | 0.0 | 0.0 | 0.00 | 0.44 | 0.44 | 75 | 1001.6 |
| 20260508011017 | 41 | 10 | 0.0 | 0.0 | 0.00 | 0.44 | 0.44 | 74 | 1001.6 |
| 20260508010514 | 41 | 352 | 0.0 | 2.0 | 0.00 | 0.44 | 0.44 | 74 | 1001.6 |
| 20260508010012 | 42 | 109 | 0.0 | 5.0 | 0.00 | 0.44 | 0.44 | 71 | 1001.9 |
| 20260508005508 | 42 | 279 | 0.0 | 0.0 | 0.00 | 0.44 | 0.44 | 70 | 1001.9 |
| 20260508005005 | 42 | 261 | 0.0 | 2.0 | 0.00 | 0.44 | 0.44 | 69 | 1001.9 |
| 20260508004501 | 43 | 197 | 0.0 | 5.0 | 0.00 | 0.44 | 0.44 | 68 | 1001.9 |
| 20260508003958 | 42 | 213 | 0.0 | 0.0 | 0.00 | 0.44 | 0.44 | 70 | 1001.2 |
| 20260508003454 | 42 | 232 | 0.0 | 0.0 | 0.00 | 0.44 | 0.44 | 70 | 1001.2 |
| 20260508002952 | 42 | 211 | 0.0 | 0.0 | 0.00 | 0.44 | 0.44 | 69 | 1001.2 |
| 20260508002448 | 42 | 203 | 0.0 | 0.0 | 0.00 | 0.44 | 0.44 | 69 | 1001.2 |
| 20260508001944 | 42 | 221 | 0.0 | 0.0 | 0.00 | 0.44 | 0.44 | 68 | 1001.2 |
| 20260508001440 | 42 | 205 | 0.0 | 0.0 | 0.00 | 0.44 | 0.44 | 68 | 1000.9 |
| 20260508000937 | 43 | 200 | 0.0 | 0.0 | 0.00 | 0.44 | 0.44 | 67 | 1001.2 |
| 20260508000434 | 43 | 205 | 0.0 | 0.0 | 0.00 | 0.44 | 0.44 | 67 | 1000.9 |
| 20260507235930 | 43 | 206 | 0.0 | 0.0 | 0.00 | 0.44 | 0.44 | 66 | 1000.9 |
| 20260507235427 | 44 | 192 | 0.0 | 0.0 | 0.00 | 0.44 | 0.44 | 66 | 1000.9 |
| 20260507234924 | 44 | 198 | 0.0 | 0.0 | 0.00 | 0.44 | 0.44 | 65 | 1000.9 |
| 20260507234421 | 45 | 93 | 0.0 | 2.0 | 0.00 | 0.44 | 0.44 | 64 | 1000.9 |
| 20260507233917 | 45 | 164 | 0.0 | 0.0 | 0.00 | 0.44 | 0.44 | 65 | 1000.9 |
| 20260507233414 | 45 | 197 | 0.0 | 2.0 | 0.00 | 0.44 | 0.44 | 63 | 1000.9 |
| 20260507232913 | 46 | 187 | 0.0 | 0.0 | 0.00 | 0.44 | 0.44 | 63 | 1000.9 |
| 20260507232409 | 46 | 197 | 0.0 | 0.0 | 0.00 | 0.44 | 0.44 | 63 | 1000.4 |
| 20260507231906 | 46 | 212 | 0.0 | 0.0 | 0.00 | 0.44 | 0.44 | 62 | 1000.9 |
| 20260507231403 | 46 | 186 | 0.0 | 0.0 | 0.00 | 0.44 | 0.44 | 61 | 1000.9 |
| 20260507230859 | 47 | 219 | 0.0 | 0.0 | 0.00 | 0.44 | 0.44 | 60 | 1000.4 |
| 20260507230357 | 47 | 345 | 0.0 | 5.0 | 0.00 | 0.44 | 0.44 | 60 | 1000.9 |
| 20260507225856 | 47 | 201 | 0.0 | 2.0 | 0.00 | 0.44 | 0.44 | 61 | 1000.4 |
| 20260507225353 | 47 | 123 | 0.0 | 2.0 | 0.00 | 0.44 | 0.44 | 60 | 1000.4 |
| 20260507224849 | 48 | 243 | 0.0 | 0.0 | 0.00 | 0.44 | 0.44 | 62 | 1000.4 |
| 20260507224346 | 48 | 215 | 0.0 | 8.0 | 0.00 | 0.44 | 0.44 | 63 | 1000.4 |
| 20260507223841 | 48 | 207 | 0.0 | 0.0 | 0.00 | 0.44 | 0.44 | 66 | 1000.4 |
| 20260507223338 | 48 | 195 | 0.0 | 0.0 | 0.00 | 0.44 | 0.44 | 65 | 1000.4 |
| 20260507222835 | 48 | 234 | 0.0 | 8.0 | 0.00 | 0.44 | 0.44 | 66 | 1000.4 |
| 20260507222331 | 49 | 177 | 1.0 | 2.0 | 0.00 | 0.44 | 0.44 | 66 | 1000.4 |
| 20260507221829 | 49 | 263 | 0.0 | 5.0 | 0.00 | 0.44 | 0.44 | 65 | 1000.4 |
| 20260507221325 | 49 | 238 | 0.0 | 5.0 | 0.00 | 0.44 | 0.44 | 65 | 1000.1 |
| 20260507220821 | 49 | 17 | 0.0 | 2.0 | 0.00 | 0.44 | 0.44 | 64 | 999.8 |
| 20260507220320 | 49 | 286 | 4.0 | 13.0 | 0.00 | 0.44 | 0.44 | 65 | 1000.1 |
| 20260507215816 | 50 | 193 | 0.0 | 0.0 | 0.00 | 0.44 | 0.44 | 68 | 1000.1 |
| 20260507215313 | 49 | 197 | 0.0 | 5.0 | 0.00 | 0.44 | 0.44 | 67 | 1000.1 |
| 20260507214810 | 49 | 191 | 0.0 | 0.0 | 0.00 | 0.44 | 0.44 | 66 | 999.8 |
| 20260507214308 | 50 | 206 | 0.0 | 0.0 | 0.00 | 0.44 | 0.44 | 65 | 999.8 |
| 20260507213802 | 51 | 152 | 0.0 | 2.0 | 0.00 | 0.44 | 0.44 | 65 | 999.8 |
| 20260507213259 | 51 | 317 | 0.0 | 5.0 | 0.00 | 0.44 | 0.44 | 66 | 999.8 |
| 20260507212756 | 50 | 280 | 0.0 | 0.0 | 0.00 | 0.44 | 0.44 | 68 | 999.8 |
| 20260507212252 | 50 | 258 | 0.0 | 0.0 | 0.00 | 0.44 | 0.44 | 67 | 999.8 |
| 20260507211749 | 51 | 226 | 0.0 | 0.0 | 0.00 | 0.44 | 0.44 | 67 | 999.8 |
| 20260507211245 | 51 | 196 | 0.0 | 0.0 | 0.00 | 0.44 | 0.44 | 68 | 999.8 |
| 20260507210742 | 50 | 154 | 0.0 | 0.0 | 0.00 | 0.44 | 0.44 | 67 | 999.4 |
| 20260507210239 | 50 | 31 | 0.0 | 0.0 | 0.00 | 0.44 | 0.44 | 67 | 999.4 |
| 20260507205736 | 50 | 193 | 0.0 | 0.0 | 0.00 | 0.44 | 0.44 | 70 | 999.4 |
| 20260507205233 | 50 | 201 | 0.0 | 0.0 | 0.00 | 0.44 | 0.44 | 71 | 999.4 |
| 20260507204729 | 49 | 217 | 0.0 | 0.0 | 0.00 | 0.44 | 0.44 | 70 | 999.4 |
| 20260507204227 | 49 | 189 | 0.0 | 0.0 | 0.00 | 0.44 | 0.44 | 70 | 999.4 |
| 20260507203724 | 49 | 357 | 0.0 | 0.0 | 0.00 | 0.44 | 0.44 | 68 | 999.4 |
| 20260507203222 | 49 | 148 | 0.0 | 5.0 | 0.00 | 0.44 | 0.44 | 67 | 999.1 |
| 20260507202718 | 50 | 342 | 0.0 | 0.0 | 0.00 | 0.44 | 0.44 | 67 | 999.1 |
| 20260507202214 | 51 | 355 | 0.0 | 0.0 | 0.00 | 0.44 | 0.44 | 69 | 999.1 |
| 20260507201709 | 50 | 333 | 0.0 | 0.0 | 0.00 | 0.44 | 0.44 | 73 | 999.1 |
| 20260507201206 | 48 | 14 | 1.0 | 8.0 | 0.00 | 0.44 | 0.44 | 73 | 999.1 |
| 20260507200702 | 48 | 333 | 0.0 | 0.0 | 0.00 | 0.44 | 0.44 | 75 | 999.1 |
| 20260507200158 | 47 | 33 | 0.0 | 5.0 | 0.00 | 0.44 | 0.44 | 75 | 999.4 |
| 20260507195655 | 48 | 347 | 1.0 | 8.0 | 0.00 | 0.44 | 0.44 | 75 | 999.4 |
| 20260507195152 | 48 | 14 | 0.0 | 5.0 | 0.00 | 0.44 | 0.44 | 75 | 999.4 |
| 20260507194649 | 49 | 1 | 0.0 | 2.0 | 0.00 | 0.44 | 0.44 | 76 | 999.4 |
| 20260507194144 | 48 | 8 | 0.0 | 0.0 | 0.00 | 0.44 | 0.44 | 77 | 999.4 |
| 20260507193641 | 47 | 1 | 4.0 | 5.0 | 0.00 | 0.44 | 0.44 | 76 | 999.4 |
| 20260507193139 | 47 | 330 | 0.0 | 0.0 | 0.00 | 0.44 | 0.44 | 76 | 999.4 |
| 20260507192634 | 46 | 3 | 0.0 | 8.0 | 0.00 | 0.44 | 0.44 | 76 | 999.8 |
| 20260507192132 | 46 | 359 | 0.0 | 0.0 | 0.00 | 0.44 | 0.44 | 76 | 999.4 |
| 20260507191627 | 46 | 12 | 0.0 | 0.0 | 0.07 | 0.44 | 0.44 | 75 | 999.8 |
| 20260507191124 | 46 | 183 | 0.0 | 0.0 | 0.14 | 0.44 | 0.44 | 75 | 999.8 |
| 20260507190622 | 46 | 204 | 0.0 | 0.0 | 0.14 | 0.43 | 0.43 | 72 | 999.8 |
| 20260507190120 | 46 | 114 | 0.0 | 0.0 | 0.07 | 0.41 | 0.41 | 71 | 999.8 |
| 20260507185619 | 49 | 333 | 0.0 | 2.0 | 0.00 | 0.40 | 0.40 | 63 | 999.4 |
| 20260507185114 | 51 | 205 | 0.0 | 2.0 | 0.00 | 0.40 | 0.40 | 62 | 999.4 |
| 20260507184613 | 52 | 79 | 0.0 | 0.0 | 0.00 | 0.40 | 0.40 | 58 | 999.1 |
| 20260507184110 | 52 | 57 | 1.0 | 8.0 | 0.00 | 0.40 | 0.40 | 58 | 999.1 |
| 20260507183606 | 53 | 264 | 0.0 | 2.0 | 0.00 | 0.40 | 0.40 | 57 | 999.1 |
| 20260507183103 | 53 | 90 | 3.0 | 8.0 | 0.00 | 0.40 | 0.40 | 55 | 998.7 |
| 20260507182559 | 54 | 160 | 0.0 | 0.0 | 0.00 | 0.40 | 0.40 | 56 | 999.1 |
| 20260507182055 | 53 | 126 | 0.0 | 0.0 | 0.00 | 0.40 | 0.40 | 56 | 999.1 |
| 20260507181553 | 53 | 341 | 0.0 | 0.0 | 0.00 | 0.40 | 0.40 | 56 | 999.1 |
| 20260507181049 | 53 | 5 | 0.0 | 0.0 | 0.00 | 0.40 | 0.40 | 54 | 999.4 |
| 20260507180545 | 53 | 349 | 0.0 | 0.0 | 0.00 | 0.40 | 0.40 | 56 | 999.1 |
| 20260507180042 | 53 | 173 | 0.0 | 0.0 | 0.00 | 0.40 | 0.40 | 56 | 999.4 |
| 20260507175538 | 54 | 195 | 0.0 | 0.0 | 0.00 | 0.40 | 0.40 | 54 | 999.4 |
| 20260507175037 | 54 | 214 | 0.0 | 0.0 | 0.00 | 0.40 | 0.40 | 54 | 999.8 |
| 20260507174533 | 54 | 223 | 0.0 | 0.0 | 0.00 | 0.40 | 0.40 | 50 | 999.4 |
| 20260507174031 | 54 | 126 | 0.0 | 2.0 | 0.00 | 0.40 | 0.40 | 50 | 999.4 |
| 20260507173527 | 54 | 190 | 0.0 | 0.0 | 0.00 | 0.40 | 0.40 | 51 | 999.4 |
| 20260507173025 | 54 | 9 | 0.0 | 0.0 | 0.00 | 0.40 | 0.40 | 50 | 999.4 |
| 20260507172521 | 54 | 174 | 0.0 | 0.0 | 0.00 | 0.40 | 0.40 | 54 | 999.4 |